Dewpoint
2 2 2 1 1 2 3 3 4 5 5 8 10 11 14 13 14 12 11 11 12 12 11 10 9 8 9 6 2 -6 -8 -3
2 2 2 2 3 3 3 3 4 6 9 14 12 13 15 14 14 14 14 12 11 12 12 11 10 9 9 10 4 -2 -6 -1
3 3 3 3 3 2 3 3 4 5 9 11 11 9 11 10 14 15 15 15 13 12 11 12 11 10 9 10 8 2 -4 -3
4 4 4 3 3 2 3 2 4 4 6 8 13 13 13 15 14 15 15 15 14 14 13 13 12 11 10 10 10 5 -1 -2
4 4 4 3 2 2 2 2 4 4 7 11 14 14 15 15 13 13 15 15 14 13 14 13 13 12 11 11 11 8 3 -3
5 4 3 2 2 2 2 4 3 4 7 9 12 15 15 15 13 13 14 15 14 14 15 14 13 13 13 12 12 11 7 1
5 4 3 3 2 2 2 4 6 10 12 11 13 13 13 14 14 15 14 15 14 15 15 15 14 13 14 14 13 13 10 5
5 5 5 6 5 4 3 8 12 13 14 15 15 12 10 10 11 14 15 14 15 15 15 14 14 14 14 14 13 12 12 11
2 4 6 8 10 10 8 14 14 14 14 14 13 11 9 10 10 10 11 14 14 14 13 13 14 14 14 14 14 12 12 12
-1 0 3 5 8 10 11 12 13 14 14 13 11 11 11 11 10 11 12 12 9 11 14 13 13 14 14 14 14 13 12 12
-1 -2 -2 -2 -2 2 8 9 10 11 12 13 13 12 11 11 11 12 12 11 11 10 12 14 14 13 13 14 14 13 14 13
-1 -4 -4 -4 -3 -4 -4 -2 3 8 10 11 12 12 13 12 11 13 12 13 13 12 11 12 12 12 13 13 13 13 14 13
2 -1 -4 -5 -6 -6 -5 -4 -5 -6 -6 3 8 10 11 12 12 12 12 12 12 13 13 12 11 9 10 13 13 13 13 13
1 1 -1 -2 -3 -5 -6 -8 -9 -6 -4 -6 -7 -4 1 7 9 9 10 11 11 11 12 12 13 11 11 12 13 12 12 13
0 0 -1 -0 -1 -3 -2 -4 -7 -9 -12 -11 -4 -5 -8 -5 0 1 -0 1 2 4 5 9 9 11 11 12 12 10 10 11
-0 -1 -2 -2 -3 -3 -4 -3 -1 -1 -6 -8 -9 -6 -8 -7 -5 -3 -2 -1 -4 -5 -7 -5 1 6 10 11 11 12 10 10
-3 -4 -4 -4 -4 -4 -4 -4 -3 -5 -5 -5 -6 -8 -8 -11 -13 -13 -13 -8 -3 -2 -2 -5 -7 0 4 6 10 11 11 10
-6 -6 -6 -4 -3 -4 -5 -5 -5 -4 -4 -5 -5 -7 -8 -8 -10 -11 -10 -10 -11 -10 -6 -5 -3 -8 -3 3 5 8 10 11
-6 -6 -6 -5 -5 -4 -4 -4 -6 -6 -5 -5 -6 -7 -7 -7 -8 -9 -11 -11 -10 -9 -10 -12 -10 -7 -5 -7 -1 3 5 6
Wind_Speed
41 43 47 44 44 42 41 43 48 51 51 53 52 50 53 55 55 55 54 53 53 51 50 49 45 42 40 38 38 38 38 38
46 49 53 51 47 47 44 46 49 52 57 53 53 51 49 52 55 53 54 53 52 51 52 51 48 46 44 41 40 40 40 41
48 50 47 44 38 42 42 42 47 50 54 56 56 55 53 51 52 52 53 51 54 52 53 53 51 49 46 45 43 44 44 45
45 43 41 40 32 34 40 44 47 48 52 54 49 48 46 48 50 51 51 53 54 51 52 52 51 51 50 49 48 48 49 47
46 47 44 42 33 30 38 45 46 48 54 56 52 50 45 46 50 50 51 53 52 50 52 52 50 51 52 50 49 50 49 51
42 40 36 37 36 32 34 45 45 50 55 56 56 51 49 45 49 48 52 50 46 50 53 51 50 50 51 51 50 51 51 52
36 36 37 34 33 33 35 38 43 48 51 55 56 55 50 46 47 48 48 49 48 54 51 52 51 50 51 50 47 46 50 52
11 12 12 16 18 25 30 35 39 42 43 46 50 46 43 44 45 45 47 46 48 52 50 52 53 52 53 52 47 47 48 50
31 29 27 25 23 25 31 32 38 37 40 45 46 44 43 42 41 39 42 44 43 47 50 52 54 51 52 52 51 51 49 50
31 36 37 36 36 32 30 27 28 31 37 42 43 43 42 42 44 44 40 33 33 48 50 50 53 52 54 55 57 54 53 52
32 36 38 36 36 34 33 30 28 26 21 23 30 40 40 40 40 42 39 36 42 45 45 45 51 51 53 57 58 56 55 54
26 34 36 35 34 34 33 32 28 25 22 22 18 16 23 37 38 36 40 41 39 39 40 45 43 39 49 54 56 56 57 56
22 32 34 36 35 33 32 29 29 27 24 20 19 19 18 19 21 22 27 33 33 33 36 44 43 46 40 47 53 58 59 58
27 32 32 33 31 32 32 31 28 25 22 20 18 19 15 10 9 11 10 14 14 13 21 16 36 35 33 48 43 56 54 53
23 19 28 28 26 27 24 25 27 25 24 22 18 14 14 14 11 7 1 3 5 7 8 13 9 17 26 31 33 31 38 40
23 17 19 14 22 20 21 22 18 15 22 22 20 16 13 10 6 3 2 2 1 3 5 6 8 13 15 18 23 29 39 41
15 19 20 17 13 10 12 18 12 18 15 18 18 14 15 12 12 10 7 9 7 7 9 7 5 6 10 16 17 21 28 38
17 17 14 18 18 17 14 8 10 10 10 12 13 14 16 14 12 11 10 12 12 12 12 12 11 9 9 11 14 19 20 24
19 19 18 18 14 11 9 10 10 8 7 6 7 7 11 11 11 13 12 12 13 13 14 14 14 16 17 15 15 17 18 23
Wind_Direction
257 257 260 264 265 261 256 254 238 226 222 219 218 217 218 218 218 221 219 220 219 217 218 220 216 212 211 209 206 201 200 202
262 262 266 267 256 252 253 252 237 225 218 210 214 212 212 217 222 222 219 222 222 217 219 220 218 216 215 214 209 205 199 203
260 264 265 264 254 244 253 253 236 225 220 216 219 217 218 220 220 218 220 219 225 221 218 219 219 217 217 216 214 207 204 205
257 261 264 262 254 246 247 247 231 225 221 218 212 214 216 210 214 219 220 222 226 221 222 221 220 220 219 218 215 214 206 203
253 255 258 264 258 244 245 236 225 224 218 215 203 203 201 206 214 219 219 219 226 224 223 226 222 222 222 221 221 219 213 208
244 248 255 253 248 242 243 230 224 224 219 219 214 203 205 205 215 219 219 220 224 223 221 228 225 224 226 225 224 221 221 217
243 245 241 242 243 237 235 228 226 221 216 217 214 211 211 209 215 210 218 215 215 219 226 228 228 227 228 227 228 229 222 222
144 178 183 200 218 221 216 217 213 212 207 207 208 212 220 221 219 215 211 213 216 220 227 230 229 230 230 228 227 230 229 226
78 93 105 115 141 166 182 188 195 199 204 206 214 215 220 223 221 227 224 215 223 234 231 233 235 231 231 232 231 231 231 232
68 86 91 94 99 113 125 140 168 185 196 207 213 215 215 216 222 220 219 220 234 240 238 239 236 237 234 231 230 230 232 234
72 73 80 84 87 92 100 106 104 114 139 179 193 207 210 217 219 219 222 219 234 236 236 234 234 244 243 237 236 233 232 234
63 76 77 76 76 79 82 89 91 94 98 105 127 156 201 216 213 211 212 221 226 227 231 237 233 248 249 247 243 240 235 236
37 66 70 71 70 68 68 72 76 76 84 94 100 114 126 143 171 195 215 225 227 228 230 241 242 248 253 244 245 243 239 238
37 52 63 63 61 63 64 60 57 60 66 72 87 95 101 116 136 155 180 200 206 208 227 225 234 217 235 238 243 242 244 248
52 38 51 51 55 53 49 60 59 53 54 51 50 64 91 91 87 86 96 225 241 242 240 243 260 238 238 235 243 248 251 253
62 48 54 60 53 60 59 47 26 37 53 48 46 32 41 57 65 93 57 33 9 283 284 266 254 246 228 227 233 241 236 238
85 69 56 58 56 39 15 34 46 28 46 40 25 22 3 39 42 27 343 317 304 287 281 290 258 228 237 241 239 235 239 246
76 63 49 46 47 43 40 39 5 355 4 1 8 352 342 4 7 17 6 348 329 310 300 286 270 270 260 245 249 246 244 236
48 41 42 44 45 39 23 6 22 5 356 355 327 327 313 318 327 338 343 334 330 323 317 311 297 286 278 271 252 250 248 241
Height
1398 1399 1401 1405 1407 1407 1411 1413 1416 1423 1429 1435 1440 1446 1451 1455 1460 1465 1471 1476 1482 1489 1494 1499 1506 1513 1517 1522 1527 1532 1537 1540
1388 1389 1390 1392 1394 1397 1400 1402 1405 1413 1418 1425 1432 1436 1443 1448 1452 1457 1464 1470 1475 1483 1488 1492 1500 1505 1512 1517 1523 1528 1533 1536
1377 1377 1378 1379 1380 1384 1387 1390 1395 1402 1408 1416 1422 1428 1434 1439 1446 1452 1458 1463 1466 1474 1478 1483 1491 1499 1505 1510 1515 1521 1527 1530
1366 1366 1366 1369 1369 1372 1376 1382 1387 1394 1400 1408 1416 1424 1431 1435 1440 1445 1452 1456 1459 1467 1472 1477 1485 1491 1497 1503 1507 1512 1516 1525
1354 1355 1357 1358 1361 1364 1366 1373 1379 1385 1391 1397 1404 1411 1419 1426 1431 1438 1443 1448 1452 1459 1466 1472 1478 1484 1489 1495 1502 1506 1511 1515
1344 1346 1350 1349 1354 1357 1361 1367 1371 1376 1381 1388 1394 1403 1411 1419 1423 1429 1436 1441 1447 1452 1458 1465 1471 1477 1482 1488 1492 1499 1505 1509
1336 1343 1340 1339 1343 1349 1356 1360 1367 1371 1376 1382 1387 1394 1404 1411 1416 1422 1427 1434 1440 1446 1451 1457 1465 1470 1474 1479 1486 1492 1497 1502
1330 1333 1333 1332 1336 1341 1347 1352 1359 1364 1373 1380 1385 1393 1400 1407 1410 1415 1423 1427 1431 1438 1442 1447 1454 1461 1467 1474 1480 1483 1488 1493
1336 1335 1334 1333 1337 1339 1341 1348 1355 1360 1367 1374 1381 1388 1395 1401 1408 1414 1415 1420 1427 1434 1436 1440 1446 1452 1458 1465 1471 1475 1479 1484
1347 1343 1339 1342 1342 1342 1343 1347 1351 1356 1364 1366 1376 1382 1387 1392 1397 1403 1407 1405 1418 1428 1432 1435 1438 1443 1447 1453 1458 1465 1471 1476
1354 1352 1350 1350 1350 1351 1351 1352 1354 1359 1362 1363 1367 1373 1380 1387 1392 1398 1401 1408 1415 1421 1424 1431 1431 1435 1441 1446 1449 1454 1460 1465
1365 1359 1359 1357 1357 1357 1358 1356 1362 1363 1365 1368 1371 1373 1377 1382 1387 1392 1395 1402 1407 1413 1415 1423 1425 1426 1434 1437 1442 1447 1450 1455
1375 1367 1366 1362 1364 1363 1364 1366 1366 1368 1371 1373 1375 1378 1381 1383 1385 1390 1395 1397 1402 1407 1412 1411 1418 1425 1426 1429 1434 1438 1441 1445
1378 1376 1374 1372 1373 1371 1372 1373 1373 1374 1376 1379 1381 1380 1382 1384 1388 1391 1394 1396 1399 1401 1404 1407 1409 1414 1416 1401 1422 1425 1426 1433
1385 1388 1377 1379 1380 1380 1379 1381 1382 1384 1382 1382 1385 1385 1383 1386 1389 1391 1395 1397 1398 1399 1402 1402 1403 1408 1411 1416 1417 1413 1419 1422
1385 1389 1385 1392 1390 1389 1389 1385 1388 1391 1390 1389 1391 1397 1392 1388 1390 1392 1396 1398 1397 1399 1400 1402 1405 1411 1406 1410 1411 1413 1415 1417
1394 1397 1391 1399 1397 1387 1391 1387 1400 1393 1391 1390 1396 1401 1405 1393 1389 1391 1392 1395 1397 1397 1398 1399 1403 1401 1403 1406 1408 1408 1411 1413
1399 1400 1402 1391 1391 1391 1392 1393 1394 1399 1392 1397 1396 1402 1408 1398 1394 1392 1394 1394 1393 1392 1395 1395 1395 1396 1398 1397 1400 1403 1405 1406
1398 1398 1396 1394 1397 1393 1395 1397 1388 1392 1397 1394 1403 1396 1403 1397 1395 1395 1392 1392 1395 1393 1394 1392 1389 1389 1390 1392 1394 1397 1399 1401